Year,Month,Day,Hour,Minute,Value (Times are PST for temperature in C)
2010,08,15,00,00,18.80
2010,08,15,00,01,18.80
2010,08,15,00,02,18.80
2010,08,15,00,03,18.80
2010,08,15,00,04,18.80
2010,08,15,00,05,18.80
2010,08,15,00,06,18.80
2010,08,15,00,07,18.70
2010,08,15,00,08,18.70
2010,08,15,00,09,18.70
2010,08,15,00,10,18.70
2010,08,15,00,11,18.70
2010,08,15,00,12,18.70
2010,08,15,00,13,18.70
2010,08,15,00,14,18.70
2010,08,15,00,15,18.70
2010,08,15,00,16,18.70
2010,08,15,00,17,18.60
2010,08,15,00,18,18.60
2010,08,15,00,19,18.60
2010,08,15,00,20,18.60
2010,08,15,00,21,18.60
2010,08,15,00,22,18.60
2010,08,15,00,23,18.60
2010,08,15,00,24,18.60
2010,08,15,00,25,18.50
2010,08,15,00,26,18.50
2010,08,15,00,27,18.50
2010,08,15,00,28,18.50
2010,08,15,00,29,18.50
2010,08,15,00,30,18.50
2010,08,15,00,31,18.40
2010,08,15,00,32,18.40
2010,08,15,00,33,18.40
2010,08,15,00,34,18.40
2010,08,15,00,35,18.40
2010,08,15,00,36,18.40
2010,08,15,00,37,18.40
2010,08,15,00,38,18.40
2010,08,15,00,39,18.30
2010,08,15,00,40,18.30
2010,08,15,00,41,18.30
2010,08,15,00,42,18.30
2010,08,15,00,43,18.30
2010,08,15,00,44,18.30
2010,08,15,00,45,18.30
2010,08,15,00,46,18.30
2010,08,15,00,47,18.30
2010,08,15,00,48,18.20
2010,08,15,00,49,18.20
2010,08,15,00,50,18.20
2010,08,15,00,51,18.20
2010,08,15,00,52,18.20
2010,08,15,00,53,18.20
2010,08,15,00,54,18.20
2010,08,15,00,55,18.20
2010,08,15,00,56,18.10
2010,08,15,00,57,18.10
2010,08,15,00,59,18.10
2010,08,15,01,00,18.10
2010,08,15,01,01,18.10
2010,08,15,01,02,18.10
2010,08,15,01,06,18.10
2010,08,15,01,07,18.00
2010,08,15,01,08,18.00
2010,08,15,01,09,18.00
2010,08,15,01,10,18.00
2010,08,15,01,11,18.00
2010,08,15,01,12,18.00
2010,08,15,01,13,17.90
2010,08,15,01,14,17.90
2010,08,15,01,15,17.90
2010,08,15,01,16,17.90
2010,08,15,01,17,17.90
2010,08,15,01,18,17.90
2010,08,15,01,19,17.90
2010,08,15,01,20,17.90
2010,08,15,01,21,17.80
2010,08,15,01,22,17.80
2010,08,15,01,23,17.80
2010,08,15,01,24,17.80
2010,08,15,01,25,17.80
2010,08,15,01,26,17.80
2010,08,15,01,27,17.80
2010,08,15,01,28,17.80
2010,08,15,01,29,17.80
2010,08,15,01,30,17.80
2010,08,15,01,31,17.80
2010,08,15,01,32,17.80
2010,08,15,01,33,17.70
2010,08,15,01,34,17.70
2010,08,15,01,35,17.70
2010,08,15,01,36,17.70
2010,08,15,01,37,17.70
2010,08,15,01,38,17.70
2010,08,15,01,39,17.70
2010,08,15,01,40,17.70
2010,08,15,01,41,17.70
2010,08,15,01,42,17.60
2010,08,15,01,43,17.60
2010,08,15,01,44,17.60
2010,08,15,01,45,17.60
2010,08,15,01,46,17.60
2010,08,15,01,47,17.60
2010,08,15,01,48,17.60
2010,08,15,01,49,17.60
2010,08,15,01,50,17.60
2010,08,15,01,51,17.60
2010,08,15,01,52,17.60
2010,08,15,01,53,17.60
2010,08,15,01,54,17.50
2010,08,15,01,55,17.50
2010,08,15,01,56,17.50
2010,08,15,01,57,17.50
2010,08,15,01,58,17.50
2010,08,15,01,59,17.40
2010,08,15,02,00,17.40
2010,08,15,02,01,17.40
2010,08,15,02,02,17.40
2010,08,15,02,03,17.40
2010,08,15,02,04,17.40
2010,08,15,02,05,17.40
2010,08,15,02,06,17.40
2010,08,15,02,07,17.40
2010,08,15,02,08,17.40
2010,08,15,02,09,17.40
2010,08,15,02,10,17.40
2010,08,15,02,11,17.30
2010,08,15,02,12,17.30
2010,08,15,02,13,17.30
2010,08,15,02,14,17.30
2010,08,15,02,15,17.30
2010,08,15,02,16,17.30
2010,08,15,02,17,17.30
2010,08,15,02,18,17.30
2010,08,15,02,19,17.30
2010,08,15,02,20,17.30
2010,08,15,02,21,17.30
2010,08,15,02,22,17.30
2010,08,15,02,23,17.30
2010,08,15,02,24,17.30
2010,08,15,02,25,17.30
2010,08,15,02,26,17.30
2010,08,15,02,27,17.30
2010,08,15,02,28,17.30
2010,08,15,02,29,17.30
2010,08,15,02,30,17.30
2010,08,15,02,31,17.30
2010,08,15,02,32,17.30
2010,08,15,02,33,17.20
2010,08,15,02,34,17.20
2010,08,15,02,35,17.20
2010,08,15,02,36,17.20
2010,08,15,02,37,17.20
2010,08,15,02,38,17.20
2010,08,15,02,39,17.20
2010,08,15,02,40,17.20
2010,08,15,02,41,17.20
2010,08,15,02,42,17.20
2010,08,15,02,43,17.20
2010,08,15,02,44,17.20
2010,08,15,02,45,17.20
2010,08,15,02,46,17.20
2010,08,15,02,47,17.20
2010,08,15,02,48,17.20
2010,08,15,02,49,17.20
2010,08,15,02,50,17.20
2010,08,15,02,51,17.20
2010,08,15,02,52,17.20
2010,08,15,02,53,17.20
2010,08,15,02,54,17.20
2010,08,15,02,55,17.10
2010,08,15,02,56,17.10
2010,08,15,02,57,17.10
2010,08,15,02,58,17.10
2010,08,15,02,59,17.10
2010,08,15,03,00,17.10
2010,08,15,03,01,17.10
2010,08,15,03,02,17.10
2010,08,15,03,03,17.10
2010,08,15,03,04,17.10
2010,08,15,03,05,17.10
2010,08,15,03,06,17.10
2010,08,15,03,07,17.10
2010,08,15,03,08,17.00
2010,08,15,03,09,17.00
2010,08,15,03,10,17.00
2010,08,15,03,11,17.00
2010,08,15,03,12,17.00
2010,08,15,03,13,17.00
2010,08,15,03,14,17.00
2010,08,15,03,15,17.00
2010,08,15,03,16,16.90
2010,08,15,03,17,16.90
2010,08,15,03,18,16.90
2010,08,15,03,19,16.90
2010,08,15,03,20,16.90
2010,08,15,03,21,16.90
2010,08,15,03,22,16.90
2010,08,15,03,23,16.90
2010,08,15,03,24,16.90
2010,08,15,03,25,16.90
2010,08,15,03,26,16.90
2010,08,15,03,27,16.90
2010,08,15,03,28,16.90
2010,08,15,03,29,16.90
2010,08,15,03,30,16.90
2010,08,15,03,31,16.90
2010,08,15,03,32,16.90
2010,08,15,03,33,16.80
2010,08,15,03,34,16.80
2010,08,15,03,35,16.80
2010,08,15,03,36,16.80
2010,08,15,03,37,16.80
2010,08,15,03,38,16.80
2010,08,15,03,39,16.80
2010,08,15,03,40,16.80
2010,08,15,03,41,16.80
2010,08,15,03,42,16.80
2010,08,15,03,43,16.80
2010,08,15,03,44,16.80
2010,08,15,03,45,16.80
2010,08,15,03,46,16.80
2010,08,15,03,47,16.70
2010,08,15,03,48,16.70
2010,08,15,03,49,16.70
2010,08,15,03,50,16.70
2010,08,15,03,51,16.70
2010,08,15,03,52,16.70
2010,08,15,03,53,16.70
2010,08,15,03,54,16.70
2010,08,15,03,55,16.70
2010,08,15,03,56,16.70
2010,08,15,03,57,16.70
2010,08,15,03,58,16.70
2010,08,15,03,59,16.70
2010,08,15,04,00,16.70
2010,08,15,04,01,16.70
2010,08,15,04,02,16.60
2010,08,15,04,03,16.60
2010,08,15,04,04,16.60
2010,08,15,04,05,16.60
2010,08,15,04,06,16.60
2010,08,15,04,07,16.60
2010,08,15,04,08,16.60
2010,08,15,04,09,16.60
2010,08,15,04,10,16.60
2010,08,15,04,11,16.60
2010,08,15,04,12,16.60
2010,08,15,04,13,16.50
2010,08,15,04,14,16.50
2010,08,15,04,15,16.50
2010,08,15,04,16,16.40
2010,08,15,04,17,16.40
2010,08,15,04,18,16.40
2010,08,15,04,19,16.40
2010,08,15,04,20,16.40
2010,08,15,04,21,16.40
2010,08,15,04,22,16.40
2010,08,15,04,23,16.40
2010,08,15,04,24,16.40
2010,08,15,04,25,16.30
2010,08,15,04,26,16.30
2010,08,15,04,27,16.30
2010,08,15,04,28,16.30
2010,08,15,04,29,16.30
2010,08,15,04,30,16.30
2010,08,15,04,31,16.30
2010,08,15,04,32,16.30
2010,08,15,04,33,16.30
2010,08,15,04,34,16.30
2010,08,15,04,35,16.30
2010,08,15,04,36,16.30
2010,08,15,04,37,16.30
2010,08,15,04,38,16.30
2010,08,15,04,39,16.30
2010,08,15,04,40,16.30
2010,08,15,04,41,16.30
2010,08,15,04,42,16.30
2010,08,15,04,43,16.30
2010,08,15,04,44,16.30
2010,08,15,04,45,16.30
2010,08,15,04,46,16.30
2010,08,15,04,47,16.30
2010,08,15,04,48,16.20
2010,08,15,04,49,16.20
2010,08,15,04,50,16.20
2010,08,15,04,51,16.20
2010,08,15,04,52,16.20
2010,08,15,04,53,16.20
2010,08,15,04,54,16.20
2010,08,15,04,55,16.20
2010,08,15,04,56,16.20
2010,08,15,04,57,16.20
2010,08,15,04,58,16.20
2010,08,15,04,59,16.20
2010,08,15,05,00,16.20
2010,08,15,05,01,16.20
2010,08,15,05,02,16.20
2010,08,15,05,03,16.20
2010,08,15,05,04,16.20
2010,08,15,05,05,16.20
2010,08,15,05,06,16.10
2010,08,15,05,07,16.10
2010,08,15,05,08,16.10
2010,08,15,05,09,16.10
2010,08,15,05,10,16.10
2010,08,15,05,11,16.10
2010,08,15,05,12,16.10
2010,08,15,05,13,16.10
2010,08,15,05,14,16.10
2010,08,15,05,15,16.10
2010,08,15,05,16,16.10
2010,08,15,05,17,16.10
2010,08,15,05,18,16.10
2010,08,15,05,19,16.10
2010,08,15,05,20,16.00
2010,08,15,05,21,16.00
2010,08,15,05,22,16.00
2010,08,15,05,23,16.00
2010,08,15,05,24,15.90
2010,08,15,05,25,15.90
2010,08,15,05,26,15.90
2010,08,15,05,27,15.90
2010,08,15,05,28,15.90
2010,08,15,05,29,15.90
2010,08,15,05,30,15.90
2010,08,15,05,31,15.90
2010,08,15,05,32,15.90
2010,08,15,05,33,15.90
2010,08,15,05,34,15.90
2010,08,15,05,35,15.90
2010,08,15,05,36,15.90
2010,08,15,05,37,15.90
2010,08,15,05,38,15.90
2010,08,15,05,39,15.90
2010,08,15,05,40,15.90
2010,08,15,05,41,15.90
2010,08,15,05,42,15.90
2010,08,15,05,43,15.90
2010,08,15,05,44,15.90
2010,08,15,05,45,15.90
2010,08,15,05,46,15.90
2010,08,15,05,47,15.90
2010,08,15,05,48,15.80
2010,08,15,05,49,15.80
2010,08,15,05,50,15.80
2010,08,15,05,51,15.80
2010,08,15,05,52,15.80
2010,08,15,05,53,15.80
2010,08,15,05,54,15.80
2010,08,15,05,55,15.80
2010,08,15,05,56,15.80
2010,08,15,05,57,15.80
2010,08,15,05,58,15.80
2010,08,15,05,59,15.80
2010,08,15,06,00,15.80
2010,08,15,06,01,15.70
2010,08,15,06,02,15.70
2010,08,15,06,03,15.70
2010,08,15,06,04,15.70
2010,08,15,06,05,15.70
2010,08,15,06,06,15.70
2010,08,15,06,07,15.70
2010,08,15,06,08,15.70
2010,08,15,06,09,15.70
2010,08,15,06,10,15.70
2010,08,15,06,11,15.70
2010,08,15,06,12,15.60
2010,08,15,06,13,15.60
2010,08,15,06,14,15.60
2010,08,15,06,15,15.60
2010,08,15,06,16,15.60
2010,08,15,06,17,15.60
2010,08,15,06,18,15.60
2010,08,15,06,19,15.60
2010,08,15,06,20,15.60
2010,08,15,06,21,15.60
2010,08,15,06,22,15.60
2010,08,15,06,23,15.60
2010,08,15,06,24,15.60
2010,08,15,06,25,15.60
2010,08,15,06,26,15.60
2010,08,15,06,27,15.60
2010,08,15,06,28,15.60
2010,08,15,06,29,15.50
2010,08,15,06,30,15.50
2010,08,15,06,31,15.50
2010,08,15,06,32,15.50
2010,08,15,06,33,15.50
2010,08,15,06,34,15.50
2010,08,15,06,35,15.50
2010,08,15,06,36,15.50
2010,08,15,06,37,15.50
2010,08,15,06,38,15.50
2010,08,15,06,39,15.50
2010,08,15,06,40,15.50
2010,08,15,06,41,15.50
2010,08,15,06,42,15.50
2010,08,15,06,43,15.50
2010,08,15,06,44,15.50
2010,08,15,06,45,15.50
2010,08,15,06,46,15.50
2010,08,15,06,47,15.50
2010,08,15,06,48,15.50
2010,08,15,06,49,15.50
2010,08,15,06,50,15.50
2010,08,15,06,51,15.50
2010,08,15,06,52,15.50
2010,08,15,06,53,15.50
2010,08,15,06,54,15.50
2010,08,15,06,55,15.50
2010,08,15,06,56,15.50
2010,08,15,06,57,15.50
2010,08,15,06,58,15.50
2010,08,15,06,59,15.50
2010,08,15,07,00,15.50
2010,08,15,07,01,15.60
2010,08,15,07,02,15.60
2010,08,15,07,03,15.50
2010,08,15,07,04,15.60
2010,08,15,07,05,15.60
2010,08,15,07,06,15.60
2010,08,15,07,07,15.60
2010,08,15,07,08,15.60
2010,08,15,07,09,15.60
2010,08,15,07,10,15.60
2010,08,15,07,11,15.60
2010,08,15,07,12,15.60
2010,08,15,07,13,15.60
2010,08,15,07,14,15.50
2010,08,15,07,15,15.50
2010,08,15,07,16,15.50
2010,08,15,07,17,15.50
2010,08,15,07,18,15.50
2010,08,15,07,19,15.50
2010,08,15,07,20,15.50
2010,08,15,07,21,15.50
2010,08,15,07,22,15.50
2010,08,15,07,23,15.50
2010,08,15,07,24,15.60
2010,08,15,07,25,15.60
2010,08,15,07,26,15.60
2010,08,15,07,27,15.60
2010,08,15,07,28,15.60
2010,08,15,07,29,15.60
2010,08,15,07,30,15.60
2010,08,15,07,31,15.60
2010,08,15,07,32,15.60
2010,08,15,07,33,15.60
2010,08,15,07,34,15.60
2010,08,15,07,35,15.60
2010,08,15,07,36,15.60
2010,08,15,07,37,15.60
2010,08,15,07,38,15.60
2010,08,15,07,39,15.60
2010,08,15,07,40,15.60
2010,08,15,07,41,15.60
2010,08,15,07,42,15.60
2010,08,15,07,43,15.60
2010,08,15,07,44,15.70
2010,08,15,07,45,15.70
2010,08,15,07,46,15.70
2010,08,15,07,47,15.70
2010,08,15,07,48,15.70
2010,08,15,07,49,15.70
2010,08,15,07,50,15.70
2010,08,15,07,51,15.70
2010,08,15,07,52,15.70
2010,08,15,07,53,15.70
2010,08,15,07,54,15.70
2010,08,15,07,55,15.80
2010,08,15,07,56,15.80
2010,08,15,07,57,15.80
2010,08,15,07,58,15.80
2010,08,15,07,59,15.80
2010,08,15,08,00,15.80
2010,08,15,08,01,15.80
2010,08,15,08,02,15.90
2010,08,15,08,03,15.90
2010,08,15,08,04,15.90
2010,08,15,08,05,15.90
2010,08,15,08,06,15.90
2010,08,15,08,07,15.90
2010,08,15,08,08,15.90
2010,08,15,08,09,15.90
2010,08,15,08,10,16.00
2010,08,15,08,11,16.00
2010,08,15,08,12,16.00
2010,08,15,08,13,16.10
2010,08,15,08,14,16.10
2010,08,15,08,15,16.10
2010,08,15,08,16,16.10
2010,08,15,08,17,16.10
2010,08,15,08,18,16.10
2010,08,15,08,19,16.20
2010,08,15,08,20,16.20
2010,08,15,08,21,16.20
2010,08,15,08,22,16.30
2010,08,15,08,23,16.30
2010,08,15,08,24,16.30
2010,08,15,08,25,16.30
2010,08,15,08,26,16.40
2010,08,15,08,27,16.40
2010,08,15,08,28,16.50
2010,08,15,08,29,16.50
2010,08,15,08,30,16.60
2010,08,15,08,31,16.60
2010,08,15,08,32,16.70
2010,08,15,08,33,16.70
2010,08,15,08,34,16.70
2010,08,15,08,35,16.80
2010,08,15,08,36,16.80
2010,08,15,08,37,16.90
2010,08,15,08,38,16.90
2010,08,15,08,39,17.00
2010,08,15,08,40,17.00
2010,08,15,08,41,17.10
2010,08,15,08,42,17.10
2010,08,15,08,43,17.20
2010,08,15,08,44,17.20
2010,08,15,08,45,17.30
2010,08,15,08,46,17.30
2010,08,15,08,47,17.40
2010,08,15,08,48,17.40
2010,08,15,08,49,17.40
2010,08,15,08,50,17.50
2010,08,15,08,51,17.50
2010,08,15,08,52,17.60
2010,08,15,08,53,17.70
2010,08,15,08,54,17.70
2010,08,15,08,55,17.70
2010,08,15,08,56,17.80
2010,08,15,08,57,17.80
2010,08,15,08,58,17.90
2010,08,15,08,59,17.90
2010,08,15,09,00,17.90
2010,08,15,09,01,18.00
2010,08,15,09,02,18.00
2010,08,15,09,03,18.00
2010,08,15,09,04,18.10
2010,08,15,09,05,18.10
2010,08,15,09,06,18.10
2010,08,15,09,07,18.20
2010,08,15,09,08,18.20
2010,08,15,09,09,18.30
2010,08,15,09,10,18.30
2010,08,15,09,11,18.30
2010,08,15,09,12,18.40
2010,08,15,09,13,18.50
2010,08,15,09,14,18.50
2010,08,15,09,15,18.60
2010,08,15,09,16,18.60
2010,08,15,09,17,18.70
2010,08,15,09,18,18.70
2010,08,15,09,19,18.80
2010,08,15,09,20,18.80
2010,08,15,09,21,18.90
2010,08,15,09,22,19.00
2010,08,15,09,23,19.00
2010,08,15,09,24,19.20
2010,08,15,09,25,19.30
2010,08,15,09,26,19.40
2010,08,15,09,27,19.50
2010,08,15,09,28,19.60
2010,08,15,09,29,19.70
2010,08,15,09,30,19.70
2010,08,15,09,31,19.80
2010,08,15,09,32,19.90
2010,08,15,09,33,20.00
2010,08,15,09,34,20.00
2010,08,15,09,35,20.10
2010,08,15,09,36,20.20
2010,08,15,09,37,20.30
2010,08,15,09,38,20.30
2010,08,15,09,39,20.40
2010,08,15,09,40,20.50
2010,08,15,09,41,20.50
2010,08,15,09,42,20.60
2010,08,15,09,43,20.70
2010,08,15,09,44,20.80
2010,08,15,09,45,20.90
2010,08,15,09,46,21.00
2010,08,15,09,47,21.10
2010,08,15,09,48,21.20
2010,08,15,09,49,21.20
2010,08,15,09,50,21.30
2010,08,15,09,51,21.40
2010,08,15,09,52,21.50
2010,08,15,09,53,21.60
2010,08,15,09,54,21.70
2010,08,15,09,55,21.70
2010,08,15,09,56,21.80
2010,08,15,09,57,21.80
2010,08,15,09,58,21.90
2010,08,15,09,59,22.00
2010,08,15,10,00,22.10
2010,08,15,10,01,22.10
2010,08,15,10,02,22.20
2010,08,15,10,03,22.30
2010,08,15,10,04,22.40
2010,08,15,10,05,22.50
2010,08,15,10,06,22.50
2010,08,15,10,07,22.60
2010,08,15,10,08,22.70
2010,08,15,10,09,22.80
2010,08,15,10,10,22.80
2010,08,15,10,11,22.90
2010,08,15,10,12,23.00
2010,08,15,10,13,23.00
2010,08,15,10,14,23.10
2010,08,15,10,15,23.20
2010,08,15,10,16,23.20
2010,08,15,10,17,23.30
2010,08,15,10,18,23.30
2010,08,15,10,19,23.40
2010,08,15,10,20,23.50
2010,08,15,10,21,23.60
2010,08,15,10,22,23.60
2010,08,15,10,23,23.70
2010,08,15,10,24,23.80
2010,08,15,10,25,23.90
2010,08,15,10,26,24.00
2010,08,15,10,27,24.10
2010,08,15,10,28,24.10
2010,08,15,10,29,24.20
2010,08,15,10,30,24.30
2010,08,15,10,31,24.30
2010,08,15,10,32,24.40
2010,08,15,10,33,24.40
2010,08,15,10,34,24.50
2010,08,15,10,35,24.50
2010,08,15,10,36,24.50
2010,08,15,10,37,24.60
2010,08,15,10,38,24.60
2010,08,15,10,39,24.60
2010,08,15,10,40,24.70
2010,08,15,10,41,24.70
2010,08,15,10,42,24.70
2010,08,15,10,43,24.70
2010,08,15,10,44,24.80
2010,08,15,10,45,24.80
2010,08,15,10,46,24.90
2010,08,15,10,47,25.00
2010,08,15,10,48,25.10
2010,08,15,10,49,25.20
2010,08,15,10,50,25.30
2010,08,15,10,51,25.50
2010,08,15,10,52,25.60
2010,08,15,10,53,25.70
2010,08,15,10,54,25.80
2010,08,15,10,55,25.80
2010,08,15,10,56,25.90
2010,08,15,10,57,25.90
2010,08,15,10,58,25.90
2010,08,15,10,59,26.00
2010,08,15,11,00,26.00
2010,08,15,11,01,26.10
2010,08,15,11,02,26.20
2010,08,15,11,03,26.30
2010,08,15,11,04,26.30
2010,08,15,11,05,26.40
2010,08,15,11,06,26.40
2010,08,15,11,07,26.50
2010,08,15,11,08,26.50
2010,08,15,11,09,26.60
2010,08,15,11,10,26.70
2010,08,15,11,11,26.70
2010,08,15,11,12,26.70
2010,08,15,11,13,26.80
2010,08,15,11,14,26.80
2010,08,15,11,15,26.90
2010,08,15,11,16,26.90
2010,08,15,11,17,26.90
2010,08,15,11,18,27.00
2010,08,15,11,19,27.00
2010,08,15,11,20,27.00
2010,08,15,11,21,27.10
2010,08,15,11,22,27.10
2010,08,15,11,23,27.20
2010,08,15,11,24,27.20
2010,08,15,11,25,27.30
2010,08,15,11,26,27.30
2010,08,15,11,27,27.40
2010,08,15,11,28,27.40
2010,08,15,11,29,27.50
2010,08,15,11,30,27.60
2010,08,15,11,31,27.70
2010,08,15,11,32,27.70
2010,08,15,11,33,27.70
2010,08,15,11,34,27.80
2010,08,15,11,35,27.80
2010,08,15,11,36,27.90
2010,08,15,11,37,28.00
2010,08,15,11,38,28.10
2010,08,15,11,39,28.10
2010,08,15,11,40,28.30
2010,08,15,11,41,28.40
2010,08,15,11,42,28.40
2010,08,15,11,43,28.50
2010,08,15,11,44,28.60
2010,08,15,11,45,28.70
2010,08,15,11,46,28.80
2010,08,15,11,47,28.80
2010,08,15,11,48,28.80
2010,08,15,11,49,28.90
2010,08,15,11,50,29.00
2010,08,15,11,51,29.10
2010,08,15,11,52,29.20
2010,08,15,11,53,29.20
2010,08,15,11,54,29.30
2010,08,15,11,55,29.40
2010,08,15,11,56,29.50
2010,08,15,11,57,29.60
2010,08,15,11,58,29.70
2010,08,15,11,59,29.80
2010,08,15,12,00,29.80
2010,08,15,12,01,29.90
2010,08,15,12,02,29.90
2010,08,15,12,03,29.90
2010,08,15,12,04,30.00
2010,08,15,12,05,30.00
2010,08,15,12,06,30.00
2010,08,15,12,07,30.00
2010,08,15,12,08,30.00
2010,08,15,12,09,30.10
2010,08,15,12,10,30.10
2010,08,15,12,11,30.10
2010,08,15,12,12,30.10
2010,08,15,12,13,30.10
2010,08,15,12,14,30.10
2010,08,15,12,15,30.10
2010,08,15,12,16,30.10
2010,08,15,12,17,30.10
2010,08,15,12,18,30.10
2010,08,15,12,19,30.00
2010,08,15,12,20,30.00
2010,08,15,12,21,29.90
2010,08,15,12,22,29.80
2010,08,15,12,23,29.90
2010,08,15,12,24,29.90
2010,08,15,12,25,29.90
2010,08,15,12,26,30.00
2010,08,15,12,27,30.10
2010,08,15,12,28,30.10
2010,08,15,12,29,30.20
2010,08,15,12,30,30.30
2010,08,15,12,31,30.30
2010,08,15,12,32,30.30
2010,08,15,12,33,30.30
2010,08,15,12,34,30.20
2010,08,15,12,35,30.30
2010,08,15,12,36,30.30
2010,08,15,12,37,30.30
2010,08,15,12,38,30.40
2010,08,15,12,39,30.50
2010,08,15,12,40,30.60
2010,08,15,12,41,30.60
2010,08,15,12,42,30.70
2010,08,15,12,43,30.70
2010,08,15,12,44,30.70
2010,08,15,12,45,30.70
2010,08,15,12,46,30.60
2010,08,15,12,47,30.50
2010,08,15,12,48,30.30
2010,08,15,12,49,30.20
2010,08,15,12,50,30.10
2010,08,15,12,51,30.20
2010,08,15,12,52,30.20
2010,08,15,12,53,30.20
2010,08,15,12,54,30.20
2010,08,15,12,55,30.30
2010,08,15,12,56,30.30
2010,08,15,12,57,30.30
2010,08,15,12,58,30.30
2010,08,15,12,59,30.30
2010,08,15,13,00,30.30
2010,08,15,13,01,30.40
2010,08,15,13,02,30.40
2010,08,15,13,03,30.40
2010,08,15,13,04,30.40
2010,08,15,13,05,30.50
2010,08,15,13,06,30.50
2010,08,15,13,07,30.60
2010,08,15,13,08,30.60
2010,08,15,13,09,30.50
2010,08,15,13,10,30.50
2010,08,15,13,11,30.50
2010,08,15,13,12,30.50
2010,08,15,13,13,30.50
2010,08,15,13,14,30.50
2010,08,15,13,15,30.50
2010,08,15,13,16,30.40
2010,08,15,13,17,30.40
2010,08,15,13,18,30.50
2010,08,15,13,19,30.50
2010,08,15,13,20,30.50
2010,08,15,13,21,30.60
2010,08,15,13,22,30.60
2010,08,15,13,23,30.60
2010,08,15,13,24,30.60
2010,08,15,13,25,30.70
2010,08,15,13,26,30.70
2010,08,15,13,27,30.80
2010,08,15,13,28,30.90
2010,08,15,13,29,31.00
2010,08,15,13,30,31.00
2010,08,15,13,31,31.10
2010,08,15,13,32,31.10
2010,08,15,13,33,31.20
2010,08,15,13,34,31.30
2010,08,15,13,35,31.30
2010,08,15,13,36,31.40
2010,08,15,13,37,31.40
2010,08,15,13,38,31.40
2010,08,15,13,39,31.40
2010,08,15,13,40,31.50
2010,08,15,13,41,31.60
2010,08,15,13,42,31.70
2010,08,15,13,43,31.80
2010,08,15,13,44,31.80
2010,08,15,13,45,31.90
2010,08,15,13,46,32.00
2010,08,15,13,47,32.00
2010,08,15,13,48,32.10
2010,08,15,13,49,32.20
2010,08,15,13,50,32.20
2010,08,15,13,51,32.20
2010,08,15,13,52,32.20
2010,08,15,13,53,32.30
2010,08,15,13,54,32.50
2010,08,15,13,55,32.60
2010,08,15,13,56,32.80
2010,08,15,13,57,32.90
2010,08,15,13,58,33.00
2010,08,15,13,59,33.10
2010,08,15,14,00,33.10
2010,08,15,14,01,33.20
2010,08,15,14,02,33.20
2010,08,15,14,03,33.20
2010,08,15,14,04,33.10
2010,08,15,14,05,33.10
2010,08,15,14,06,33.20
2010,08,15,14,07,33.20
2010,08,15,14,08,33.20
2010,08,15,14,09,33.20
2010,08,15,14,10,33.20
2010,08,15,14,11,33.30
2010,08,15,14,12,33.40
2010,08,15,14,13,33.40
2010,08,15,14,14,33.40
2010,08,15,14,15,33.40
2010,08,15,14,16,33.40
2010,08,15,14,17,33.30
2010,08,15,14,18,33.30
2010,08,15,14,19,33.30
2010,08,15,14,20,33.30
2010,08,15,14,21,33.40
2010,08,15,14,22,33.40
2010,08,15,14,23,33.50
2010,08,15,14,24,33.70
2010,08,15,14,25,33.80
2010,08,15,14,26,33.90
2010,08,15,14,27,34.00
2010,08,15,14,28,34.10
2010,08,15,14,29,34.20
2010,08,15,14,30,34.20
2010,08,15,14,31,34.20
2010,08,15,14,32,34.20
2010,08,15,14,33,34.20
2010,08,15,14,34,34.20
2010,08,15,14,35,34.20
2010,08,15,14,36,34.20
2010,08,15,14,37,34.20
2010,08,15,14,38,34.20
2010,08,15,14,39,34.20
2010,08,15,14,40,34.10
2010,08,15,14,41,34.10
2010,08,15,14,42,34.20
2010,08,15,14,43,34.20
2010,08,15,14,44,34.30
2010,08,15,14,45,34.30
2010,08,15,14,46,34.40
2010,08,15,14,47,34.40
2010,08,15,14,48,34.40
2010,08,15,14,49,34.40
2010,08,15,14,50,34.50
2010,08,15,14,51,34.60
2010,08,15,14,52,34.70
2010,08,15,14,53,34.80
2010,08,15,14,54,34.90
2010,08,15,14,55,35.00
2010,08,15,14,56,35.10
2010,08,15,14,57,35.10
2010,08,15,14,58,35.00
2010,08,15,14,59,34.90
2010,08,15,15,00,34.80
2010,08,15,15,01,34.70
2010,08,15,15,02,34.60
2010,08,15,15,03,34.60
2010,08,15,15,04,34.60
2010,08,15,15,05,34.60
2010,08,15,15,06,34.50
2010,08,15,15,07,34.40
2010,08,15,15,08,34.40
2010,08,15,15,09,34.50
2010,08,15,15,10,34.60
2010,08,15,15,11,34.60
2010,08,15,15,12,34.60
2010,08,15,15,13,34.70
2010,08,15,15,14,34.80
2010,08,15,15,15,34.80
2010,08,15,15,16,34.90
2010,08,15,15,17,34.90
2010,08,15,15,18,35.00
2010,08,15,15,19,35.00
2010,08,15,15,20,35.00
2010,08,15,15,21,34.90
2010,08,15,15,22,34.90
2010,08,15,15,23,34.90
2010,08,15,15,24,34.80
2010,08,15,15,25,34.80
2010,08,15,15,26,34.90
2010,08,15,15,27,34.90
2010,08,15,15,28,34.90
2010,08,15,15,29,34.90
2010,08,15,15,30,35.00
2010,08,15,15,31,35.10
2010,08,15,15,32,35.10
2010,08,15,15,33,35.20
2010,08,15,15,34,35.20
2010,08,15,15,35,35.30
2010,08,15,15,36,35.30
2010,08,15,15,37,35.40
2010,08,15,15,38,35.40
2010,08,15,15,39,35.40
2010,08,15,15,40,35.40
2010,08,15,15,41,35.40
2010,08,15,15,42,35.30
2010,08,15,15,43,35.30
2010,08,15,15,44,35.20
2010,08,15,15,45,35.10
2010,08,15,15,46,35.10
2010,08,15,15,47,35.10
2010,08,15,15,48,35.10
2010,08,15,15,49,35.20
2010,08,15,15,50,35.30
2010,08,15,15,51,35.30
2010,08,15,15,52,35.40
2010,08,15,15,53,35.30
2010,08,15,15,54,35.30
2010,08,15,15,55,35.30
2010,08,15,15,56,35.30
2010,08,15,15,57,35.20
2010,08,15,15,58,35.30
2010,08,15,15,59,35.30
2010,08,15,16,00,35.40
2010,08,15,16,01,35.40
2010,08,15,16,02,35.50
2010,08,15,16,03,35.60
2010,08,15,16,04,35.60
2010,08,15,16,05,35.60
2010,08,15,16,06,35.60
2010,08,15,16,07,35.60
2010,08,15,16,08,35.70
2010,08,15,16,09,35.60
2010,08,15,16,10,35.70
2010,08,15,16,11,35.70
2010,08,15,16,12,35.70
2010,08,15,16,13,35.60
2010,08,15,16,14,35.60
2010,08,15,16,15,35.60
2010,08,15,16,16,35.50
2010,08,15,16,17,35.50
2010,08,15,16,18,35.40
2010,08,15,16,19,35.40
2010,08,15,16,20,35.40
2010,08,15,16,21,35.30
2010,08,15,16,22,35.20
2010,08,15,16,23,35.20
2010,08,15,16,24,35.10
2010,08,15,16,25,35.10
2010,08,15,16,26,35.00
2010,08,15,16,27,34.90
2010,08,15,16,28,34.90
2010,08,15,16,29,34.90
2010,08,15,16,30,34.90
2010,08,15,16,31,34.90
2010,08,15,16,32,34.90
2010,08,15,16,33,34.90
2010,08,15,16,34,34.90
2010,08,15,16,35,34.90
2010,08,15,16,36,34.90
2010,08,15,16,37,35.00
2010,08,15,16,38,35.00
2010,08,15,16,39,35.10
2010,08,15,16,40,35.10
2010,08,15,16,41,35.10
2010,08,15,16,42,35.10
2010,08,15,16,43,35.00
2010,08,15,16,44,34.90
2010,08,15,16,45,34.90
2010,08,15,16,46,34.90
2010,08,15,16,47,34.90
2010,08,15,16,48,34.90
2010,08,15,16,49,34.90
2010,08,15,16,50,34.90
2010,08,15,16,51,35.00
2010,08,15,16,52,35.00
2010,08,15,16,53,35.00
2010,08,15,16,54,35.00
2010,08,15,16,55,35.10
2010,08,15,16,56,35.10
2010,08,15,16,57,35.10
2010,08,15,16,58,35.10
2010,08,15,16,59,35.20
2010,08,15,17,00,35.30
2010,08,15,17,01,35.30
2010,08,15,17,02,35.40
2010,08,15,17,03,35.50
2010,08,15,17,04,35.50
2010,08,15,17,05,35.60
2010,08,15,17,06,35.60
2010,08,15,17,07,35.70
2010,08,15,17,08,35.80
2010,08,15,17,09,35.70
2010,08,15,17,10,35.70
2010,08,15,17,11,35.70
2010,08,15,17,12,35.60
2010,08,15,17,13,35.50
2010,08,15,17,14,35.30
2010,08,15,17,15,35.20
2010,08,15,17,16,35.10
2010,08,15,17,17,35.00
2010,08,15,17,18,34.90
2010,08,15,17,19,34.80
2010,08,15,17,20,34.80
2010,08,15,17,21,34.90
2010,08,15,17,22,34.90
2010,08,15,17,23,35.00